Regional Weather Roundup
Issued by NWS Austin/San Antonio, TX

Home | Current Version | Previous Version | Text Only | Print | Product List | Glossary On
Versions: 1 2 3 4 5 6 7 8 9 10 11 12 13 14 15 16 17 18 19 20 21 22 23 24 25 26 27 28 29 30 31 32 33 34 35 36 37 38 39 40 41 42 43 44 45 46 47 48 49 50
000
ASUS44 KEWX 112301
RWREWX
SOUTH TEXAS REGIONAL WEATHER ROUNDUP
NATIONAL WEATHER SERVICE AUSTIN/SAN ANTONIO TX
500 PM CST MON DEC 11 2017

NOTE: "FAIR" INDICATED FEW OR NO CLOUDS BELOW 12,000 FEET WITH NO
SIGNIFICANT WEATHER AND/OR OBSTRUCTIONS TO VISIBILITY.

* - THESE STATIONS ARE NOT NWS OR FAA STATIONS...AND ARE NOT SUBJECT
    TO NWS AND FAA QUALITY CONTROL.

TXZ171-172-183>190-120000-
TEXAS HILL COUNTRY AND EDWARDS PLATEAU

CITY           SKY/WX    TMP DP  RH WIND       PRES   REMARKS
JUNCTION       CLOUDY    65  28  24 SW5       30.22R
*LLANO         CLEAR     70  28  21 W5        30.22R
BURNET         CLEAR     67  35  30 CALM      30.20F
*HORSESHOE BAY CLEAR     64  43  45 CALM      30.18S
*KERRVILLE     MOCLDY    66  26  21 SW6       30.22R
*FREDERICKSBRG CLEAR     65  27  23 W3        30.21S
*ROCKSPRINGS   NOT AVBL
*BOERNE STAGE  PTCLDY    63  32  31 SW6       30.22S
*CASTROVILLE   PTCLDY    67  33  28 SW7       30.23S
HONDO          MOCLDY    67  36  31 W7        30.22S
*UVALDE        MOCLDY    64  37  35 SW5       30.24S
DEL RIO        PTCLDY    63  42  46 SW5       30.23S
LAUGHLIN AFB   MOCLDY    63  43  49 W6        30.23S
CARRIZO SPRGS  MOCLDY    63  43  48 CALM      30.22F
*EAGLE PASS    CLEAR     64  39  39 CALM      30.23S
$$

TXZ173-191>194-202-209-217>225-228-120000-
CENTRAL AND SOUTH CENTRAL TEXAS

CITY           SKY/WX    TMP DP  RH WIND       PRES   REMARKS
GEORGETOWN     CLOUDY    67  35  30 SW6       30.19S
AUSTIN/BERGSTM CLOUDY    71  34  25 S10       30.17S
AUSTIN/MABRY   CLOUDY    70  33  25 CALM      30.18S
*AUSTIN/EXEC   CLOUDY    72  32  23 CALM      30.17F
*LAGO VISTA    CLOUDY    63  41  44 CALM      30.18F
SAN MARCOS     CLOUDY    66  35  31 S7        30.19S
NEW BRAUNFELS  PTCLDY    66  33  29 SW9       30.18S
RANDOLPH AFB   PTCLDY    66  34  30 S7        30.20S
PT SAN ANTONIO PTCLDY    68  33  28 W6        30.19S
SAN ANTONIO    MOCLDY    66  33  29 SW6       30.21R
STINSON FIELD  PTCLDY    69  33  26 W7        30.19S
*LA GRANGE     PTCLDY    71  31  23 SW3       30.17S
*GIDDINGS      PTCLDY    72  28  19 SW6       30.19R
*GONZALES      PTCLDY    71  34  25 SW5       30.19R
$$

TXZ163>164-176>182-195>201-210>213-226-227-235-120000-
SOUTHEAST TEXAS

CITY           SKY/WX    TMP DP  RH WIND       PRES   REMARKS
COLLEGE STN    PTCLDY    71  35  26 S3        30.16F
*BRYAN         PTCLDY    67  40  36 CALM      30.18S
*CALDWELL      PTCLDY    72  23  15 SW8       30.17S
*CROCKETT        N/A     63  41  45 SW5       30.17S
*BRENHAM       PTCLDY    73  28  19 SW5       30.17F
HUNTSVILLE     CLOUDY    69  35  28 SW5       30.15S
CONROE         CLEAR     70  28  21 SW6       30.16S
HOUSTON BUSH   MOCLDY    71  27  19 SW5       30.16F
HOUSTON HOBBY  PTCLDY    69  33  26 W8        30.17F
*HOUSTON SW AP CLEAR     68  33  27 SW5       30.19S
PEARLAND       CLEAR     70  33  25 SW5       30.19S
HOUSTON HOOKS  CLEAR     69  30  23 SW6       30.17S
ELLINGTON FLD  PTCLDY    70  28  21 SW5       30.18F
SUGAR LAND     CLEAR     68  36  30 SW7       30.18S
*HOUSTON EXEC  NOT AVBL
*CLEVELAND MUN CLEAR     67  32  26 CALM      30.16F
*WHARTON       CLEAR     67  38  34 S6        30.20S
*COLUMBUS      FAIR     N/A N/A N/A SW3       30.20R
*EAGLE LAKE    PTCLDY    69  37  31 SW5       30.18S
$$

TXZ214>216-236>238-120000-
THE UPPER TEXAS COAST

CITY           SKY/WX    TMP DP  RH WIND       PRES   REMARKS
*ORANGE        CLEAR     64  53  67 S3        30.17S
PORT ARTHUR    CLEAR     64  48  56 S9        30.16S
GALVESTON      CLEAR     63  54  72 SW10      30.19F
ANGLETON       CLEAR     68  38  33 SW5       30.19S
*BAY CITY      CLEAR     67  45  44 S5        30.20S
PALACIOS       CLEAR     62  50  64 S8        30.21S
$$

TXZ229>234-239>247-120000-
TEXAS COASTAL BEND AND RIO GRANDE PLAINS

CITY           SKY/WX    TMP DP  RH WIND       PRES   REMARKS
VICTORIA       CLEAR     67  33  28 SW6       30.20S
*BEEVILLE      CLEAR     68  34  28 W3        30.21F
ROCKPORT       CLEAR     65  41  41 SW6       30.22F
*PORT ARANSAS  NOT AVBL
*PORT LAVACA   CLEAR     65  47  51 S7        30.21S
*INGLESIDE     NOT AVBL
CORPUS CHRISTI MOCLDY    67  50  54 CALM      30.23F
CORPUS NAS     MOCLDY    63  47  55 SE6       30.23F
*ROBSTOWN      CLEAR     69  44  39 CALM      30.23F
ALICE          CLEAR     69  33  26 SW6       30.22S
KINGSVILLE NAS MOCLDY    68  38  33 SW5       30.22F
COTULLA        MOCLDY    65  36  34 SW3       30.24R
*FAITH RANCH   CLEAR     64  46  52 CALM      30.23S
LAREDO           N/A     68  38  33 MISG        N/A
$$

TXZ248>255-120000-
DEEP SOUTH TEXAS

CITY           SKY/WX    TMP DP  RH WIND       PRES   REMARKS
BROWNSVILLE    PTCLDY    70  36  28 CALM      30.25S
PORT ISABEL    PTCLDY    64  40  41 E3        30.24F
*SOUTH PADRE   NOT AVBL
HARLINGEN      CLOUDY    68  38  33 CALM      30.23F
*HEBBRONVILLE  PTCLDY    69  26  20 S3        30.24S
MCALLEN        PTCLDY    70  43  37 CALM      30.24S
*WESLACO       CLOUDY    67  40  37 CALM      30.24S
FALFURRIAS     CLEAR     69  38  31 S6        30.23S
EDINBURG       NOT AVBL
*ZAPATA        PTCLDY    68  32  26 CALM      30.23S
$$

TXZ213>215-236>238-242>244-246-247-251-254-255-120000-
CMAN STATIONS

STATION/POSITION TIME  TEMP    WIND        PRES    WAVE
                       AIR SEA DIR/SP/G            HT/PER
                 (UTC) (F)     (DEG/KT/KT) (MB)    (FT/S)
SABINE PASS      2230   61 58  220/  6/ 13 1023.3
SEA RIM ST PARK  2200   61     230/ 12/ 14 1022.5
NORTH JETTY/GLS  2224      56  200/ 12/ 15 1021.8
EAGLE POINT      2224   65 58  210/ 10/ 11 1022.0
MORGANS POINT    2230   73 59  230/  8/ 10 1021.7
PORT O`CONNOR    2224   63 55  210/  8/ 10 1022.7
MALAQUITE BEACH  2230   64 61  140/  5/  6 1023.5
BAFFIN BAY       2230   63 57  130/  6/  7 1024.1
PORT ISABEL      2230   65 58   10/  3/  4 1024.0
$$




USA.gov is the U.S. government's official web portal to all federal, state and local government web resources and services.